This is the latest recevied weather packets stored in our database for station/object TG5ALY-16. If no packets are shown the sender has not sent any weather packets the latest 10 day(s).
| Time | Temp. | Humidity | Pressure | Rain* | Wind** | Luminosity | Snow |
|---|---|---|---|---|---|---|---|
| 1777821484 | 17.78° C | 66% | 1017 hPa | 0 mm | - | - | - |
| 1777815477 | 15° C | 77% | 1018 hPa | 0 mm | - | - | - |
| 1777814877 | 14.44° C | 81% | 1018 hPa | 0 mm | - | - | - |
| 1777811874 | 13.89° C | 82% | 1019 hPa | 0 mm | - | - | - |
| 1777811273 | 13.89° C | 83% | 1019 hPa | 0 mm | - | - | - |
| 1777807669 | 13.89° C | 90% | 1019 hPa | 0 mm | - | - | - |
| 1777807068 | 13.89° C | 91% | 1019 hPa | 0 mm | - | - | - |
| 1777805266 | 13.89° C | 91% | 1019 hPa | 0 mm | - | - | - |
| 1777804065 | 12.78° C | 88% | 1018 hPa | 0 mm | - | - | - |
| 1777802864 | 12.78° C | 88% | 1018 hPa | 0 mm | - | - | - |
| 1777801062 | 13.33° C | 84% | 1018 hPa | 0 mm | - | - | - |
| 1777800461 | 13.33° C | 84% | 1018 hPa | 0 mm | - | - | - |
| 1777799861 | 12.78° C | 84% | 1018 hPa | 0 mm | - | - | - |
| 1777799260 | 12.78° C | 85% | 1018 hPa | 0 mm | - | - | - |
| 1777798659 | 12.78° C | 85% | 1018 hPa | 0 mm | - | - | - |
| 1777798059 | 12.78° C | 85% | 1018 hPa | 0 mm | - | - | - |
| 1777797458 | 12.22° C | 85% | 1018 hPa | 0 mm | - | - | - |
| 1777796857 | 12.22° C | 85% | 1018 hPa | 0 mm | - | - | - |
| 1777796257 | 12.22° C | 86% | 1018 hPa | 0 mm | - | - | - |
| 1777795656 | 12.22° C | 86% | 1018 hPa | 0 mm | - | - | - |
| 1777795055 | 12.78° C | 84% | 1018 hPa | 0 mm | - | - | - |
| 1777794455 | 12.78° C | 84% | 1018 hPa | 0 mm | - | - | - |
| 1777793854 | 13.33° C | 84% | 1018 hPa | 0 mm | - | - | - |
| 1777793253 | 13.33° C | 84% | 1019 hPa | 0 mm | - | - | - |
| 1777792653 | 12.78° C | 85% | 1019 hPa | 0 mm | - | - | - |
* Rain latest hour (hover to see other rain measurements)
** Current wind speed in m/s (hover to see current wind gust speed)